TimeEST,TemperatureF,Dew PointF,Humidity,Sea Level PressureIn,VisibilityMPH,Wind Direction,Wind SpeedMPH,Gust SpeedMPH,PrecipitationIn,Events,Conditions,WindDirDegrees,DateUTC
12:15 AM,42.6,34.5,73,29.94,10.0,Calm,Calm,-,N/A,,Clear,0,2013-02-16 05:15:00
12:35 AM,42.4,34.9,75,29.96,10.0,Calm,Calm,-,N/A,,Mostly Cloudy,0,2013-02-16 05:35:00
12:55 AM,42.8,34.9,74,29.96,10.0,Calm,Calm,-,N/A,,Mostly Cloudy,0,2013-02-16 05:55:00
1:15 AM,43.0,35.4,75,29.96,10.0,North,5.8,-,N/A,,Mostly Cloudy,10,2013-02-16 06:15:00
1:35 AM,46.4,35.4,66,29.95,10.0,North,6.9,-,N/A,,Overcast,360,2013-02-16 06:35:00
1:55 AM,46.6,34.7,63,29.95,10.0,North,9.2,-,N/A,,Overcast,10,2013-02-16 06:55:00
2:15 AM,46.4,34.0,62,29.95,10.0,North,6.9,-,N/A,,Overcast,360,2013-02-16 07:15:00
2:35 AM,45.9,34.0,63,29.95,10.0,NNW,4.6,-,N/A,,Overcast,340,2013-02-16 07:35:00
2:55 AM,45.5,34.5,65,29.95,10.0,NNW,3.5,-,N/A,,Overcast,340,2013-02-16 07:55:00
3:15 AM,45.3,33.6,64,29.94,10.0,NNW,3.5,-,N/A,,Overcast,340,2013-02-16 08:15:00
3:35 AM,44.8,33.4,64,29.95,10.0,NNW,5.8,-,N/A,,Overcast,340,2013-02-16 08:35:00
3:55 AM,44.6,33.4,65,29.94,10.0,North,3.5,-,N/A,,Overcast,350,2013-02-16 08:55:00
4:15 AM,44.6,33.1,64,29.94,10.0,NNW,3.5,-,N/A,,Overcast,340,2013-02-16 09:15:00
4:35 AM,44.2,32.9,64,29.93,10.0,North,3.5,-,N/A,,Overcast,360,2013-02-16 09:35:00
4:55 AM,44.2,32.5,63,29.93,10.0,North,3.5,-,N/A,,Overcast,10,2013-02-16 09:55:00
5:15 AM,44.2,32.9,64,29.92,10.0,North,4.6,-,N/A,,Overcast,360,2013-02-16 10:15:00
5:35 AM,44.1,32.4,63,29.92,10.0,North,4.6,-,N/A,,Overcast,360,2013-02-16 10:35:00
5:55 AM,43.9,32.7,65,29.91,10.0,North,5.8,-,N/A,,Overcast,350,2013-02-16 10:55:00
6:15 AM,43.7,32.5,65,29.91,10.0,North,3.5,-,N/A,,Overcast,360,2013-02-16 11:15:00
6:35 AM,43.3,32.9,67,29.91,10.0,North,3.5,-,N/A,,Overcast,360,2013-02-16 11:35:00
6:55 AM,43.2,32.9,67,29.91,10.0,North,5.8,-,N/A,,Overcast,10,2013-02-16 11:55:00
7:15 AM,43.2,33.3,68,29.92,10.0,NNW,4.6,-,N/A,,Overcast,340,2013-02-16 12:15:00
7:35 AM,43.2,33.8,70,29.92,10.0,North,6.9,-,N/A,,Overcast,350,2013-02-16 12:35:00
7:55 AM,43.7,33.8,68,29.93,10.0,North,4.6,-,N/A,,Overcast,350,2013-02-16 12:55:00
8:15 AM,43.9,33.6,67,29.93,10.0,NNW,3.5,-,N/A,,Overcast,340,2013-02-16 13:15:00
8:35 AM,44.2,33.8,67,29.92,10.0,North,6.9,-,N/A,,Overcast,350,2013-02-16 13:35:00
8:55 AM,43.9,34.2,69,29.93,10.0,North,5.8,-,N/A,,Overcast,360,2013-02-16 13:55:00
9:15 AM,42.3,33.1,70,29.93,10.0,NNW,6.9,-,N/A,,Overcast,330,2013-02-16 14:15:00
9:35 AM,41.7,33.8,73,29.94,10.0,NNW,9.2,-,N/A,,Overcast,330,2013-02-16 14:35:00
9:55 AM,40.6,34.5,79,29.92,10.0,North,10.4,18.4,N/A,,Drizzle,360,2013-02-16 14:55:00
10:15 AM,39.4,35.6,86,29.92,10.0,North,9.2,-,N/A,,Drizzle,350,2013-02-16 15:15:00
10:35 AM,39.0,37.2,93,29.92,5.0,North,5.8,-,N/A,Rain,Light Rain,350,2013-02-16 15:35:00
1:15 PM,33.8,33.8,100,29.87,1.5,NNW,4.6,-,0.02,Snow,Light Snow,340,2013-02-16 18:15:00
1:35 PM,33.3,33.1,99,29.87,0.8,NNW,3.5,-,0.04,Snow,Light Snow,330,2013-02-16 18:35:00
1:55 PM,33.1,33.1,100,29.85,0.5,NW,3.5,-,0.06,Snow,Light Snow,320,2013-02-16 18:55:00
2:15 PM,33.1,33.1,100,29.85,0.8,NW,3.5,-,0.04,Snow,Light Snow,320,2013-02-16 19:15:00
2:35 PM,33.1,33.1,100,29.85,0.8,NW,3.5,-,0.07,Snow,Light Snow,320,2013-02-16 19:35:00
2:55 PM,33.3,33.3,100,29.85,1.0,NW,4.6,-,0.09,Snow,Light Snow,320,2013-02-16 19:55:00
3:15 PM,33.4,33.4,100,29.84,1.5,NW,4.6,-,0.01,Snow,Light Snow,320,2013-02-16 20:15:00
3:35 PM,33.8,33.8,100,29.84,2.0,NW,4.6,-,0.01,Snow,Light Snow,320,2013-02-16 20:35:00
3:55 PM,33.8,33.8,100,29.84,2.0,NW,4.6,-,0.02,Snow,Light Snow,320,2013-02-16 20:55:00
4:15 PM,33.8,33.8,100,29.84,2.0,NW,3.5,-,N/A,Snow,Light Snow,320,2013-02-16 21:15:00
4:35 PM,33.8,33.8,100,29.84,1.8,Calm,Calm,-,0.01,Snow,Light Snow,0,2013-02-16 21:35:00
4:55 PM,33.8,33.8,100,29.84,2.0,Calm,Calm,-,0.02,Snow,Light Snow,0,2013-02-16 21:55:00
5:15 PM,33.8,33.8,100,29.83,2.5,Calm,Calm,-,N/A,Snow,Light Snow,0,2013-02-16 22:15:00
5:35 PM,34.0,34.0,100,29.81,4.0,North,4.6,-,0.01,Rain,Light Rain,360,2013-02-16 22:35:00
5:55 PM,34.2,34.2,100,29.84,7.0,NW,4.6,-,0.01,,Overcast,310,2013-02-16 22:55:00
6:15 PM,34.5,34.2,99,29.85,7.0,NW,5.8,-,N/A,,Overcast,320,2013-02-16 23:15:00
6:35 PM,34.2,33.8,99,29.85,7.0,NW,4.6,-,N/A,,Overcast,320,2013-02-16 23:35:00
6:55 PM,34.2,33.8,99,29.86,10.0,NW,4.6,-,N/A,,Overcast,320,2013-02-16 23:55:00
7:15 PM,34.2,33.8,99,29.86,10.0,NW,3.5,-,N/A,Snow,Light Snow,320,2013-02-17 00:15:00
7:35 PM,34.2,33.8,99,29.86,10.0,NW,4.6,-,N/A,,Overcast,310,2013-02-17 00:35:00
7:55 PM,34.2,33.8,99,29.86,10.0,NW,3.5,-,N/A,,Overcast,310,2013-02-17 00:55:00
8:15 PM,34.0,33.8,99,29.87,10.0,NW,6.9,-,N/A,,Overcast,320,2013-02-17 01:15:00
8:35 PM,34.0,33.4,98,29.87,10.0,NNW,4.6,-,N/A,,Overcast,330,2013-02-17 01:35:00
8:55 PM,34.0,33.3,97,29.87,10.0,NW,4.6,-,N/A,,Overcast,320,2013-02-17 01:55:00
9:15 PM,33.8,33.3,98,29.88,10.0,NW,4.6,-,N/A,,Overcast,310,2013-02-17 02:15:00
9:35 PM,33.6,33.1,98,29.88,10.0,NW,6.9,-,N/A,,Overcast,320,2013-02-17 02:35:00
9:55 PM,33.8,33.1,97,29.89,10.0,NW,4.6,-,N/A,,Overcast,310,2013-02-17 02:55:00
10:15 PM,33.4,32.9,98,29.90,10.0,NW,4.6,-,N/A,,Overcast,310,2013-02-17 03:15:00
10:35 PM,33.4,32.9,98,29.90,10.0,NW,5.8,-,N/A,,Overcast,310,2013-02-17 03:35:00
10:55 PM,33.3,32.4,96,29.91,10.0,WNW,5.8,-,N/A,,Overcast,300,2013-02-17 03:55:00
11:15 PM,33.1,32.0,96,29.91,10.0,NW,8.1,-,N/A,,Mostly Cloudy,310,2013-02-17 04:15:00
11:35 PM,33.1,29.5,87,29.92,10.0,NW,8.1,-,N/A,,Mostly Cloudy,310,2013-02-17 04:35:00
11:55 PM,32.9,27.0,79,29.92,10.0,NW,6.9,-,N/A,,Overcast,310,2013-02-17 04:55:00